This demonstration page uses our WeatherBlox Daily Observations layout. Learn more.

Left ArrowRight Arrow

41.86663, -103.66717

Hourly Observations for March 11, 2017

Temp ( °F °C ) Dew Point ( °F °C ) Humidity (%) Winds ( mph kmh ) Pressure ( in mb ) Visibility ( mi km ) Precip ( " mm )
12:53 am 00:53 Cloudy with Light Rain 33 0.6 27 -2.8 78 78 undefined N/A 30.16 1021 10 16 0.00 0.03
1:37 am 01:37 Cloudy with Light Rain 33 0.6 27 -2.8 78 78 ESE 7 11 30.27 1025 9 14 0.02 0.51
1:53 am 01:53 Cloudy with Light Rain 33 0.6 28 -2.2 82 82 SSE 9 15 30.16 1022 8 13 0.03 0.76
2:53 am 02:53 Cloudy 32 0 29 -1.7 88 88 SE 5 7 30.15 1021 10 16 0.01 0.25
3:53 am 03:53 Cloudy 33 0.6 29 -1.7 85 85 NE 6 9 30.16 1021 10 16 0.00 0.00
4:53 am 04:53 Cloudy with Light Rain 33 0.6 30 -1.1 89 89 NW 6 9 30.21 1023 10 16 0.00 0.03
5:53 am 05:53 Mostly Cloudy 34 1.1 31 -0.6 89 89 N 5 7 30.24 1024 10 16 0.01 0.25
6:53 am 06:53 Cloudy 34 1.1 31 -0.6 89 89 NW 6 9 30.26 1025 10 16 0.00 0.00
7:53 am 07:53 Cloudy 37 2.8 33 0.6 86 86 W 6 9 30.29 1026 10 16 0.00 0.00
8:35 am 08:35 Cloudy 39 3.9 35 1.7 86 86 W 8 13 30.36 1028 10 16 0.00 0.00
8:53 am 08:53 Cloudy 40 4.4 36 2.2 86 86 WNW 6 9 30.32 1027 10 16 0.00 0.00
9:53 am 09:53 Mostly Cloudy 44 6.7 38 3.3 79 79 W 6 9 30.33 1027 10 16 0.00 0.00
10:53 am 10:53 Mostly Cloudy 49 9.4 39 3.9 69 69 VRB 6 9 30.31 1026 10 16 0.00 0.00
11:05 am 11:05 Cloudy 48 8.9 38 3.3 68 68 VRB 3 6 30.27 1025 10 16 0.00 0.00
11:29 am 11:29 Mostly Cloudy 49 9.4 39 3.9 69 69 S 3 6 30.27 1025 10 16 0.00 0.00
11:53 am 11:53 Cloudy 46 7.8 37 2.8 71 71 ENE 13 20 30.33 1027 10 16 0.00 0.00
12:24 pm 12:24 Cloudy 45 7 37 3 76 76 E 13 20 30.30 1026 10 16 0.00 0.00
12:53 pm 12:53 Cloudy 45 7.2 36 2.2 71 71 E 12 19 30.33 1027 10 16 0.00 0.00
1:53 pm 13:53 Mostly Cloudy 49 9.4 36 2.2 61 61 E 10 17 30.28 1026 10 16 0.00 0.00
2:53 pm 14:53 Mostly Cloudy 50 10 36 2.2 59 59 E 12 19 30.27 1025 10 16 0.00 0.00
3:53 pm 15:53 Mostly Sunny 51 10.6 35 1.7 54 54 E 9 15 30.27 1025 10 16 0.00 0.00
4:53 pm 16:53 Cloudy 50 10 34 1.1 54 54 ESE 10 17 30.26 1025 10 16 0.00 0.00
5:53 pm 17:53 Mostly Sunny 45 7.2 34 1.1 66 66 ESE 12 19 30.25 1024 10 16 0.00 0.00
6:53 pm 18:53 Clear 40 4.4 31 -0.6 70 70 undefined N/A 30.27 1025 10 16 0.00 0.00
7:53 pm 19:53 Clear 35 1.7 29 -1.7 78 78 ESE 9 15 30.27 1025 10 16 0.00 0.00
8:53 pm 20:53 Cloudy 38 3.3 30 -1.1 73 73 undefined N/A 30.23 1024 10 16 0.00 0.00
9:53 pm 21:53 Clear 35 1.7 29 -1.7 78 78 ESE 14 22 30.19 1022 10 16 0.00 0.00
10:53 pm 22:53 Clear 34 1.1 30 -1.1 85 85 ESE 13 20 30.13 1020 10 16 0.00 0.00
11:53 pm 23:53 Clear 37 2.8 32 0 82 82 E 7 11 30.07 1018 10 16 0.00 0.00

Powered by AerisWeather